| time (UTC) | temp F | wind direction | speed knots | gust knots | rain 1hr in | rain 24hr in | rain mn in | humidity % | barometer mb |
| 20260508060216 | 42 | 90 | 0.0 | 0.9 | 0.00 | 0.00 | 0.00 | 96 | |
| 20260508055711 | 42 | 90 | 0.9 | 0.9 | 0.00 | 0.00 | 0.00 | 96 | |
| 20260508055208 | 42 | 90 | 0.9 | 0.9 | 0.00 | 0.00 | 0.00 | 96 | |
| 20260508054704 | 43 | 105 | 0.0 | 1.7 | 0.00 | 0.00 | 0.00 | 96 | |
| 20260508054203 | 42 | 90 | 0.9 | 0.9 | 0.00 | 0.00 | 0.00 | 96 | |
| 20260508053659 | 42 | 90 | 0.0 | 1.7 | 0.00 | 0.00 | 0.00 | 95 | |
| 20260508053157 | 43 | 66 | 0.0 | 0.9 | 0.00 | 0.00 | 0.00 | 96 | |
| 20260508052654 | 43 | 60 | 0.0 | 0.9 | 0.00 | 0.00 | 0.00 | 95 | |
| 20260508052150 | 43 | 74 | 0.0 | 0.9 | 0.00 | 0.00 | 0.00 | 95 | |
| 20260508051647 | 44 | 23 | 0.0 | 0.9 | 0.00 | 0.00 | 0.00 | 95 | |
| 20260508051142 | 43 | 54 | 0.0 | 0.9 | 0.00 | 0.00 | 0.00 | 95 | |
| 20260508050638 | 44 | 90 | 0.9 | 1.7 | 0.00 | 0.00 | 0.00 | 95 | |
| 20260508050136 | 44 | 105 | 0.9 | 2.6 | 0.00 | 0.00 | 0.00 | 95 | |
| 20260508045632 | 44 | 74 | 0.0 | 1.7 | 0.00 | 0.00 | 0.00 | 95 | |
| 20260508045130 | 44 | 90 | 0.9 | 1.7 | 0.00 | 0.00 | 0.00 | 94 | |
| 20260508044627 | 44 | 90 | 0.0 | 0.9 | 0.00 | 0.00 | 0.00 | 94 | |
| 20260508044123 | 44 | 98 | 0.0 | 0.0 | 0.00 | 0.00 | 0.00 | 94 | |
| 20260508043620 | 45 | 90 | 0.0 | 0.0 | 0.00 | 0.00 | 0.00 | 94 | |
| 20260508043118 | 45 | 90 | 0.0 | 0.0 | 0.00 | 0.00 | 0.00 | 94 | |
| 20260508042614 | 45 | 90 | 0.0 | 0.0 | 0.00 | 0.00 | 0.00 | 94 | |
| 20260508042111 | 46 | 82 | 0.0 | 0.9 | 0.00 | 0.00 | 0.00 | 94 | |
| 20260508041607 | 46 | 83 | 0.9 | 0.9 | 0.00 | 0.00 | 0.00 | 93 | |
| 20260508041104 | 46 | 74 | 0.0 | 0.0 | 0.00 | 0.00 | 0.00 | 93 | |
| 20260508040601 | 46 | 90 | 0.0 | 0.9 | 0.00 | 0.00 | 0.00 | 93 | |
| 20260508040059 | 46 | 105 | 0.0 | 0.9 | 0.00 | 0.21 | 0.21 | 93 | |
| 20260508035555 | 46 | 90 | 0.9 | 0.9 | 0.00 | 0.21 | 0.21 | 92 | |
| 20260508035053 | 47 | 90 | 0.9 | 0.9 | 0.00 | 0.21 | 0.21 | 92 | |
| 20260508034549 | 46 | 90 | 0.0 | 0.9 | 0.00 | 0.21 | 0.21 | 92 | |
| 20260508034046 | 47 | 74 | 0.0 | 0.0 | 0.00 | 0.21 | 0.21 | 91 | |
| 20260508033544 | 47 | 105 | 0.0 | 0.9 | 0.00 | 0.21 | 0.21 | 91 | |
| 20260508033042 | 48 | 81 | 0.0 | 0.9 | 0.00 | 0.21 | 0.21 | 91 | |
| 20260508032538 | 48 | 106 | 0.0 | 0.0 | 0.00 | 0.21 | 0.21 | 90 | |
| 20260508032036 | 48 | 90 | 0.0 | 0.9 | 0.00 | 0.21 | 0.21 | 90 | |
| 20260508031533 | 48 | 66 | 0.0 | 0.0 | 0.00 | 0.21 | 0.21 | 89 | |
| 20260508031029 | 49 | 60 | 0.0 | 0.9 | 0.00 | 0.21 | 0.21 | 89 | |
| 20260508030525 | 49 | 74 | 0.0 | 0.9 | 0.00 | 0.21 | 0.21 | 89 | |
| 20260508030024 | 49 | 66 | 0.0 | 0.9 | 0.00 | 0.21 | 0.21 | 88 | |
| 20260508025519 | 49 | 74 | 0.0 | 1.7 | 0.00 | 0.21 | 0.21 | 88 | |
| 20260508025016 | 49 | 96 | 0.0 | 1.7 | 0.00 | 0.21 | 0.21 | 87 | |
| 20260508024512 | 49 | 285 | 0.0 | 1.7 | 0.00 | 0.21 | 0.21 | 87 | |
| 20260508024009 | 49 | 126 | 0.0 | 0.9 | 0.00 | 0.21 | 0.21 | 87 | |
| 20260508023506 | 50 | 35 | 0.0 | 0.0 | 0.00 | 0.21 | 0.21 | 86 | |
| 20260508023004 | 50 | 74 | 0.0 | 0.9 | 0.00 | 0.21 | 0.21 | 86 | |
| 20260508022459 | 50 | 295 | 0.0 | 1.7 | 0.00 | 0.21 | 0.21 | 86 | |
| 20260508021955 | 50 | 5 | 0.0 | 1.7 | 0.00 | 0.21 | 0.21 | 85 | |
| 20260508021452 | 50 | 90 | 0.0 | 0.9 | 0.00 | 0.21 | 0.21 | 85 | |
| 20260508020948 | 50 | 66 | 0.0 | 0.9 | 0.00 | 0.21 | 0.21 | 84 | |
| 20260508020446 | 51 | 0 | 0.0 | 1.7 | 0.00 | 0.21 | 0.21 | 84 | |
| 20260508015943 | 50 | 82 | 0.9 | 1.7 | 0.00 | 0.21 | 0.21 | 84 | |
| 20260508015441 | 51 | 84 | 0.9 | 1.7 | 0.00 | 0.21 | 0.21 | 83 | |
| 20260508014937 | 51 | 0 | 0.0 | 0.9 | 0.00 | 0.21 | 0.21 | 84 | |
| 20260508014434 | 51 | 331 | 0.0 | 1.7 | 0.00 | 0.21 | 0.21 | 85 | |
| 20260508013930 | 51 | 99 | 0.0 | 0.0 | 0.00 | 0.21 | 0.21 | 85 | |
| 20260508013426 | 51 | 15 | 0.0 | 1.7 | 0.00 | 0.21 | 0.21 | 85 | |
| 20260508012924 | 52 | 20 | 0.0 | 1.7 | 0.00 | 0.21 | 0.21 | 85 | |
| 20260508012420 | 52 | 40 | 0.0 | 1.7 | 0.00 | 0.21 | 0.21 | 84 | |
| 20260508011918 | 52 | 90 | 0.0 | 0.9 | 0.00 | 0.21 | 0.21 | 83 | |
| 20260508011416 | 52 | 285 | 1.7 | 3.5 | 0.00 | 0.21 | 0.21 | 81 | |
| 20260508010913 | 53 | 254 | 0.0 | 1.7 | 0.00 | 0.21 | 0.21 | 80 | |
| 20260508010410 | 53 | 148 | 0.9 | 1.7 | 0.00 | 0.21 | 0.21 | 79 | |
| 20260508005907 | 53 | 32 | 0.9 | 1.7 | 0.00 | 0.21 | 0.21 | 77 | |
| 20260508005404 | 53 | 170 | 1.7 | 1.7 | 0.00 | 0.21 | 0.21 | 76 | |
| 20260508004900 | 53 | 128 | 0.0 | 2.6 | 0.00 | 0.21 | 0.21 | 76 | |
| 20260508004356 | 53 | 352 | 0.0 | 1.7 | 0.00 | 0.21 | 0.21 | 76 | |
| 20260508003853 | 53 | 180 | 0.9 | 2.6 | 0.00 | 0.21 | 0.21 | 75 | |
| 20260508003350 | 53 | 331 | 1.7 | 4.3 | 0.00 | 0.21 | 0.21 | 74 | |
| 20260508002848 | 53 | 173 | 0.9 | 3.5 | 0.00 | 0.21 | 0.21 | 72 | |
| 20260508002343 | 53 | 325 | 0.9 | 2.6 | 0.00 | 0.21 | 0.21 | 72 | |
| 20260508001840 | 54 | 206 | 0.0 | 2.6 | 0.00 | 0.21 | 0.21 | 73 | |
| 20260508001336 | 54 | 285 | 0.9 | 2.6 | 0.00 | 0.21 | 0.21 | 74 | |
| 20260508000832 | 54 | 270 | 0.0 | 1.7 | 0.00 | 0.21 | 0.21 | 74 | |
| 20260508000329 | 54 | 287 | 0.0 | 4.3 | 0.00 | 0.21 | 0.21 | 74 | |
| 20260507235826 | 54 | 246 | 0.0 | 1.7 | 0.00 | 0.21 | 0.21 | 73 | |
| 20260507235323 | 55 | 325 | 0.0 | 4.3 | 0.00 | 0.21 | 0.21 | 71 | |
| 20260507234820 | 55 | 337 | 2.6 | 3.5 | 0.00 | 0.21 | 0.21 | 68 | |
| 20260507234317 | 55 | 285 | 2.6 | 5.2 | 0.00 | 0.21 | 0.21 | 66 | |
| 20260507233813 | 55 | 23 | 0.0 | 3.5 | 0.00 | 0.21 | 0.21 | 68 | |
| 20260507233311 | 56 | 157 | 0.0 | 3.5 | 0.00 | 0.21 | 0.21 | 67 | |
| 20260507232809 | 56 | 321 | 1.7 | 1.7 | 0.00 | 0.21 | 0.21 | 65 | |
| 20260507232306 | 57 | 17 | 1.7 | 2.6 | 0.00 | 0.21 | 0.21 | 66 | |
| 20260507231802 | 56 | 138 | 2.6 | 3.5 | 0.00 | 0.21 | 0.21 | 63 | |
| 20260507231259 | 57 | 322 | 2.6 | 7.0 | 0.00 | 0.21 | 0.21 | 62 | |
| 20260507230755 | 57 | 212 | 1.7 | 3.5 | 0.00 | 0.21 | 0.21 | 64 | |
| 20260507230253 | 58 | 190 | 1.7 | 4.3 | 0.00 | 0.21 | 0.21 | 63 | |
| 20260507225752 | 58 | 251 | 1.7 | 4.3 | 0.00 | 0.21 | 0.21 | 65 | |
| 20260507225249 | 58 | 338 | 3.5 | 5.2 | 0.00 | 0.21 | 0.21 | 65 | |
| 20260507224744 | 57 | 356 | 1.7 | 2.6 | 0.00 | 0.21 | 0.21 | 66 | |
| 20260507224241 | 57 | 205 | 4.3 | 4.3 | 0.00 | 0.21 | 0.21 | 68 | |
| 20260507223738 | 57 | 215 | 0.0 | 5.2 | 0.00 | 0.21 | 0.21 | 68 | |
| 20260507223234 | 57 | 180 | 0.0 | 6.1 | 0.00 | 0.21 | 0.21 | 67 | |
| 20260507222731 | 57 | 114 | 1.7 | 2.6 | 0.00 | 0.21 | 0.21 | 68 | |
| 20260507222227 | 56 | 105 | 1.7 | 7.0 | 0.00 | 0.21 | 0.21 | 68 | |
| 20260507221724 | 57 | 294 | 1.7 | 5.2 | 0.00 | 0.21 | 0.21 | 67 | |
| 20260507221220 | 57 | 301 | 0.0 | 4.3 | 0.00 | 0.21 | 0.21 | 68 | |
| 20260507220717 | 57 | 197 | 5.2 | 7.0 | 0.00 | 0.21 | 0.21 | 67 | |
| 20260507220216 | 58 | 320 | 3.5 | 5.2 | 0.00 | 0.21 | 0.21 | 65 | |
| 20260507215711 | 57 | 201 | 2.6 | 5.2 | 0.00 | 0.21 | 0.21 | 65 | |
| 20260507215209 | 58 | 195 | 4.3 | 8.7 | 0.00 | 0.21 | 0.21 | 65 | |
| 20260507214706 | 57 | 209 | 2.6 | 3.5 | 0.00 | 0.21 | 0.21 | 66 | |
| 20260507214203 | 57 | 270 | 1.7 | 7.0 | 0.00 | 0.21 | 0.21 | 67 | |
| 20260507213658 | 58 | 339 | 1.7 | 6.1 | 0.00 | 0.21 | 0.21 | 67 | |
| 20260507213156 | 58 | 246 | 5.2 | 6.1 | 0.00 | 0.21 | 0.21 | 65 | |
| 20260507212652 | 59 | 300 | 3.5 | 5.2 | 0.00 | 0.21 | 0.21 | 65 | |
| 20260507212149 | 58 | 147 | 1.7 | 7.8 | 0.00 | 0.21 | 0.21 | 68 | |
| 20260507211646 | 58 | 185 | 2.6 | 8.7 | 0.00 | 0.21 | 0.21 | 67 | |
| 20260507211141 | 58 | 180 | 4.3 | 5.2 | 0.00 | 0.21 | 0.21 | 66 | |
| 20260507210639 | 58 | 327 | 1.7 | 7.8 | 0.00 | 0.21 | 0.21 | 67 | |
| 20260507210135 | 59 | 283 | 1.7 | 5.2 | 0.00 | 0.21 | 0.21 | 68 | |
| 20260507205632 | 58 | 201 | 7.8 | 7.8 | 0.00 | 0.21 | 0.21 | 67 | |
| 20260507205128 | 58 | 245 | 4.3 | 5.2 | 0.00 | 0.21 | 0.21 | 67 | |
| 20260507204625 | 58 | 0 | 2.6 | 6.1 | 0.00 | 0.21 | 0.21 | 66 | |
| 20260507204122 | 59 | 214 | 3.5 | 6.1 | 0.00 | 0.21 | 0.21 | 67 | |
| 20260507203620 | 59 | 188 | 7.0 | 7.0 | 0.00 | 0.21 | 0.21 | 65 | |
| 20260507203118 | 59 | 132 | 1.7 | 9.6 | 0.00 | 0.21 | 0.21 | 66 | |
| 20260507202613 | 60 | 161 | 2.6 | 4.3 | 0.00 | 0.21 | 0.21 | 63 | |
| 20260507202110 | 62 | 305 | 1.7 | 4.3 | 0.00 | 0.21 | 0.21 | 61 | |
| 20260507201604 | 61 | 74 | 0.0 | 3.5 | 0.00 | 0.21 | 0.21 | 63 | |
| 20260507201101 | 61 | 312 | 1.7 | 2.6 | 0.00 | 0.21 | 0.21 | 60 | |
| 20260507185729 | 63 | 23 | 2.6 | 5.2 | 0.00 | 0.21 | 0.21 | 38 | |
| 20260507185225 | 63 | 23 | 2.6 | 5.2 | 0.00 | 0.21 | 0.21 | 38 | |
| 20260507184723 | 63 | 293 | 1.7 | 7.0 | 0.00 | 0.21 | 0.21 | 45 | |
| 20260507184221 | 63 | 7 | 0.0 | 7.0 | 0.00 | 0.21 | 0.21 | 42 | |
| 20260507183717 | 63 | 309 | 2.6 | 4.3 | 0.00 | 0.21 | 0.21 | 42 | |
| 20260507183214 | 62 | 348 | 0.9 | 4.3 | 0.00 | 0.21 | 0.21 | 39 | |
| 20260507182712 | 62 | 353 | 2.6 | 4.3 | 0.00 | 0.21 | 0.21 | 38 | |
| 20260507182207 | 62 | 6 | 2.6 | 4.3 | 0.00 | 0.21 | 0.21 | 41 | |
| 20260507181703 | 62 | 26 | 5.2 | 6.1 | 0.00 | 0.21 | 0.21 | 42 | |
| 20260507181200 | 64 | 15 | 1.7 | 4.3 | 0.00 | 0.21 | 0.21 | 45 | |
| 20260507180656 | 62 | 341 | 1.7 | 4.3 | 0.00 | 0.21 | 0.21 | 43 | |
| 20260507180154 | 62 | 12 | 0.9 | 3.5 | 0.00 | 0.21 | 0.21 | 43 | |
| 20260507175649 | 62 | 315 | 2.6 | 4.3 | 0.00 | 0.21 | 0.21 | 42 | |
| 20260507175147 | 62 | 0 | 1.7 | 5.2 | 0.00 | 0.21 | 0.21 | 41 | |
| 20260507174644 | 61 | 339 | 1.7 | 4.3 | 0.00 | 0.21 | 0.21 | 43 | |
| 20260507174142 | 62 | 331 | 2.6 | 2.6 | 0.00 | 0.21 | 0.21 | 46 | |
| 20260507173639 | 62 | 312 | 1.7 | 7.8 | 0.00 | 0.21 | 0.21 | 45 | |
| 20260507173136 | 61 | 311 | 1.7 | 5.2 | 0.00 | 0.21 | 0.21 | 48 | |
| 20260507172632 | 61 | 346 | 0.0 | 7.0 | 0.00 | 0.21 | 0.21 | 49 | |
| 20260507172130 | 61 | 320 | 1.7 | 4.3 | 0.00 | 0.21 | 0.21 | 49 | |
| 20260507171629 | 60 | 356 | 1.7 | 4.3 | 0.00 | 0.21 | 0.21 | 46 | |
| 20260507171127 | 62 | 5 | 2.6 | 3.5 | 0.00 | 0.21 | 0.21 | 49 | |
| 20260507170624 | 61 | 349 | 3.5 | 4.3 | 0.00 | 0.21 | 0.21 | 49 | |
| 20260507170121 | 60 | 19 | 1.7 | 5.2 | 0.00 | 0.21 | 0.21 | 50 | |
| 20260507165616 | 60 | 295 | 4.3 | 4.3 | 0.00 | 0.21 | 0.21 | 54 | |
| 20260507165113 | 60 | 8 | 1.7 | 4.3 | 0.00 | 0.21 | 0.21 | 57 | |
| 20260507164609 | 60 | 356 | 1.7 | 5.2 | 0.00 | 0.21 | 0.21 | 54 |